Regional Weather Roundup
Issued by NWS

Home | Current Version | Previous Version | Text Only | Print | Product List | Glossary Off
Versions: 1 2 3 4 5 6 7 8 9 10 11 12 13 14 15 16 17 18 19 20 21 22 23 24 25 26 27 28 29 30 31 32 33 34 35 36 37 38 39 40 41 42 43 44 45 46 47 48 49 50

000
ASUS43 KLOT 201908
RWRIL

ILLINOIS REGIONAL WEATHER ROUNDUP
NATIONAL WEATHER SERVICE CHICAGO/ROMEOVILLE IL
200 PM CDT FRI APR 20 2018

NOTE: "FAIR" INDICATES FEW OR NO CLOUDS BELOW 12,000 FEET WITH NO
SIGNIFICANT WEATHER AND/OR OBSTRUCTIONS TO VISIBILITY.

* THESE STATIONS ARE NOT UNDER NWS QUALITY CONTROL. THEY ALSO MAY NOT
  REPORT WEATHER SUCH AS PRECIPITATION OR FOG.

ILZ001-002-007-009-015-016-024-202000-
NORTHWEST ILLINOIS

CITY           SKY/WX    TMP DP  RH WIND       PRES   REMARKS
MOLINE         FAIR      60  17  18 SE7       30.47F
STERLING*      FAIR      58  25  28 VRB3      30.50F
SAVANNA*       FAIR      57  20  24 SW7       30.49S
$$

ILZ003-004-008-010-011-017-018-202000-
NORTH CENTRAL ILLINOIS

CITY           SKY/WX    TMP DP  RH WIND       PRES   REMARKS
ROCKFORD       FAIR      58  17  20 CALM      30.50S
FREEPORT*      FAIR      56  20  25 SW6       30.51S
ROCHELLE*      FAIR      57  25  28 SW3       30.49F
DE KALB*       FAIR      57  21  24 CALM      30.49F
PERU*          FAIR      60  22  23 NE5       30.49F
$$

ILZ005-006-012>014-019>023-202000-
NORTHEAST ILLINOIS

CITY           SKY/WX    TMP DP  RH WIND       PRES   REMARKS
CHICAGO-OHARE  PTSUNNY   58  17  20 CALM      30.47F
CHICAGO-MIDWAY PTSUNNY   58  18  21 NE9       30.49F
AURORA         FAIR      58  18  21 W3        30.47F
LANSING*       FAIR      57  27  31 NE3       30.49S
JOLIET*        FAIR      60  24  24 E3        30.48F
WAUKEGAN       FAIR      52  28  39 SE7       30.49F
DUPAGE AIRPORT FAIR      59  17  19 MISG      30.47F
KANKAKEE*      FAIR      59  22  24 CALM      30.48F
WHEELING       FAIR      60  25  26 NE7       30.50F
MORRIS*        FAIR      59  23  25 CALM      30.47F
ROMEOVILLE*    FAIR      59  21  22 NE5       30.48F
NORTHERLY ISL    N/A     43  34  70 NE3         N/A
$$

LMZ740>746-202000-
SOUTHERN LAKE MICHIGAN

STATION/POSITION SKY/WX   TEMP    WIND        PRES    VSBY  WAVE
                          AIR SEA DIR/SP/G                  HT/PER
                          (F)     (DEG/KT/KT) (MB)    (MI)  (FT/S)
HARRISON CRIB              43      90/  6/  7   N/A
BURNHAM HARBOR             43      60/  3/  5   N/A
CALUMET HARBOR             43      50/  7/  8 1032.2F
BURNS HARBOR               43      60/  6/  7 1033.2F
MICHIGAN CITY              40      10/  5/  6   N/A
$$

ILZ025>027-034>036-040-047-049-050-058-095>099-202000-
WEST-CENTRAL ILLINOIS

CITY           SKY/WX    TMP DP  RH WIND       PRES   REMARKS
QUINCY         MOSUNNY   59  20  22 SE12      30.45F
GALESBURG*     FAIR      61  19  20 S6        30.48F
MACOMB*        CLOUDY    58  18  21 SE13G18   30.49F
JACKSONVILLE*  SUNNY     58  22  24 SE8G16    30.46F
PITTSFIELD*    CLOUDY    60  22  23 SE9G16    30.46F
$$

ILZ028>032-037-038-041>044-048-051>054-059>061-202000-
CENTRAL ILLINOIS

CITY           SKY/WX    TMP DP  RH WIND       PRES   REMARKS
PONTIAC        FAIR      58  21  23 S3        30.49S
BLOOMINGTON    FAIR      60  21  22 E13       30.48F
DECATUR        FAIR      61  18  18 E12       30.46F
PEORIA         FAIR      60  24  25 VRB6      30.48F
LACON*         FAIR      59  16  18 SE5       30.47F
LINCOLN*       FAIR      60  21  22 SE8       30.47F
SPRINGFIELD    FAIR      61  17  18 E7G17     30.47F
TAYLORVILLE    FAIR      59  20  21 E5        30.46F
$$

ILZ033-039-045-046-055>057-062-063-202000-
EAST-CENTRAL ILLINOIS

CITY           SKY/WX    TMP DP  RH WIND       PRES   REMARKS
CHAMPAIGN      FAIR      60  19  20 E10       30.46F
DANVILLE*      FAIR      57  22  25 NE6       30.45F
RANTOUL*       FAIR      60  22  22 E10G16    30.46F
MATTOON        FAIR      60  23  24 E7        30.45F
PARIS*         FAIR      59  30  32 E10       30.47F
$$

ILZ079-100>102-202000-
SOUTHWEST ILLINOIS

CITY           SKY/WX    TMP DP  RH WIND       PRES   REMARKS
ALTON          MOSUNNY   59  28  31 E10       30.45F
BELLEVILLE     SUNNY     61  24  24 E7        30.43F
CAHOKIA*       SUNNY     61  24  24 E12G21    30.44F
SPARTA*        SUNNY     59  30  34 E7        30.44F
$$

ILZ064>066-069>071-074>076-080>082-084>086-088>090-092>094-202000-
SOUTH-CENTRAL ILLINOIS

CITY           SKY/WX    TMP DP  RH WIND       PRES   REMARKS
CARBONDALE     FAIR      61  26  26 E12G23    30.43F
CAIRO*         FAIR      61  28  28 E9G17     30.41F
EFFINGHAM*     FAIR      60  28  29 E10       30.47F
MARION         MOSUNNY   61  21  21 E12       30.44F
MT. VERNON     FAIR      60  23  24 E9G18     30.45F
CENTRALIA*     SUNNY     60  26  26 E9        30.43F
SALEM*         FAIR      61  17  18 E7G17     30.45F
METROPOLIS*    FAIR      63  27  25 CALM      30.41F
$$

ILZ067-068-072-073-078-083-087-091-202000-
SOUTHEAST ILLINOIS

CITY           SKY/WX    TMP DP  RH WIND       PRES   REMARKS
LAWRENCEVILLE  FAIR      64  19  17 NE9       30.45F
FLORA*         FAIR      61  23  23 NE12      30.46F
FAIRFIELD*     FAIR      61  27  27 NE7       30.44F
HARRISBURG*    FAIR      59  31  35 E12       30.45S
ROBINSON*      FAIR      60  22  23 NE9       30.46F
CARMI*         FAIR      60  28  28 E10       30.44S
$$

ABBREVIATIONS USED IN REMARKS
   TC - TEMPERATURE IN CELSIUS
  WCI - WIND CHILL INDEX
   HX - HEAT INDEX
  VSB - VISIBILITY
$$





USA.gov is the U.S. government's official web portal to all federal, state and local government web resources and services.